Location: Newark
(60.0000°N, 100.0000°E)
Time: 07:27:26
(UTC+00:00)

N. Korean satellite - Pass Details

Date: 24 November 2019
Orbit: 456 x 506 km, 97.2° (Epoch: 09 December)

Event Time Altitude Azimuth Distance (km) Brightness Sun altitude
Rises 22:47:04 0° 20° (NNE) 2,619 10.5 -20.2°
Reaches altitude 10° 22:49:21 10° 31° (NNE) 1,724 9.6 -19.9°
Maximum altitude 22:52:42 31° 95° (E) 892 8.6 -19.5°
Drops below altitude 10° 22:55:59 10° 160° (SSE) 1,691 9.7 -19.1°
Sets 22:58:12 0° 170° (S) 2,559 10.5 -18.8°
